Home > Weather > Fresno > Past weeks

Flag for USA Past Weather in Fresno, California, USA — Yesterday and Last 2 Weeks

Now
88 °F

Sunny.


Feels Like: 84 °F
Forecast: 67 / 97 °F
Wind: 7 mph from Northwest

Location: Fresno Air Terminal

Current Time: Aug 24, 2016 at 12:55:57 PM

Latest Report: Aug 24, 2016 at 11:53 AM


Visibility: 10 mi

Pressure: 30.01 "Hg

Humidity: 19%

Dew Point: 41 °F

Location of FresnoLocation

Past Weather in Fresno — Graph

°F

Fresno Temperature Yesterday

Maximum temperature yesterday: 97 °F (at 3:53 PM)
Minimum temperature yesterday: 68 °F (at 6:53 AM)
Average temperature yesterday: 83 °F

High & Low Weather Summary for the Past Weeks

 TemperatureHumidityPressure
High106 °F (Aug 14, 4:53 PM)63% (Aug 11, 5:53 AM)30.03 "Hg (Aug 11, 5:53 AM)
Low66 °F (Aug 10, 6:53 AM)9% (Aug 17, 4:53 PM)29.70 "Hg (Aug 17, 6:53 PM)
Average84 °F32%29.84 "Hg
* Reported Aug 9 11:53 AM — Aug 24 11:53 AM, Fresno, Weather by CustomWeather, © 2016

Note: Actual official high and low records may vary slightly from our data, if they occured in-between our weather recording intervals... More about our weather records

Advertising

Fresno Weather History for the Previous 24 Hours

Scroll right to see more
 ConditionsComfort  
Time TempWeatherWind HumidityBarometerVisibility
11:53 AM
Wed, Aug 24
88 °FSunny.7 mph19%30.01 "Hg10 mi
10:53 AM84 °FSunny.5 mph20%30.02 "Hg10 mi
9:53 AM80 °FSunny.5 mph31%30.03 "Hg10 mi
8:53 AM76 °FSunny.3 mph37%30.03 "Hg10 mi
7:53 AM71 °FSunny.3 mph51%30.03 "Hg10 mi
6:53 AM67 °FClear.No wind61%30.01 "Hg10 mi
5:53 AM67 °FClear.No wind61%30.00 "Hg10 mi
4:53 AM68 °FClear.3 mph59%29.99 "Hg10 mi
3:53 AM68 °FClear.8 mph59%29.99 "Hg10 mi
2:53 AM71 °FClear.5 mph53%29.99 "Hg10 mi
1:53 AM74 °FClear.9 mph48%29.98 "Hg10 mi
12:53 AM77 °FClear.6 mph39%29.99 "Hg10 mi
11:53 PM
Tue, Aug 23
78 °FClear.9 mph39%29.98 "Hg10 mi
10:53 PM79 °FClear.12 mph34%29.98 "Hg10 mi
9:53 PM83 °FClear.10 mph28%29.98 "Hg10 mi
8:53 PM87 °FClear.10 mph24%29.97 "Hg10 mi
7:53 PM89 °FPassing clouds.9 mph23%29.95 "Hg10 mi
6:53 PM93 °FPassing clouds.10 mph19%29.93 "Hg10 mi
5:53 PM96 °FPassing clouds.13 mph17%29.93 "Hg10 mi
4:53 PM97 °FPassing clouds.10 mph18%29.93 "Hg10 mi
3:53 PM97 °FPassing clouds.12 mph16%29.94 "Hg10 mi
2:53 PM96 °FPassing clouds.9 mph19%29.96 "Hg10 mi
1:53 PM93 °FPassing clouds.10 mph20%29.98 "Hg10 mi
12:53 PM91 °FPassing clouds.8 mph22%29.99 "Hg10 mi
Weather by CustomWeather, © 2016

See weather overviewHow to use our weather pages